GW0766 Weather Reports


Display with metric or nautical units.
time (UTC)temp
F
wind
direction
speed
MPH
gust
MPH
rain 1hr
in
rain 24hr
in
rain mn
in
humidity
%
barometer
mb
20260508211540 64 324 1.0 3.0 0.00 0.00 0.00 84 990.4
20260508201114 65 44 0.0 3.0 0.00 0.00 0.00 81 990.2
20260508195934 61 305 0.0 0.0 0.00 0.08 0.08 88 1012.4
20260508181557 66 355 0.0 1.0 0.00 0.00 0.00 78 988.8
20260508175927 63 305 0.0 0.0 0.00 0.08 0.08 83 1010.9
20260508171105 69 152 1.0 3.0 0.00 0.00 0.00 74 988.2
20260508165922 65 348 1.0 3.0 0.00 0.08 0.08 82 1010.6
20260508151201 73 55 2.0 5.0 0.00 0.00 0.00 62 987.8
20260508145934 68 38 0.0 2.0 0.00 0.08 0.08 74 1010.0
20260508141110 73 88 4.0 8.0 0.00 0.00 0.00 61 987.7
20260508125926 65 133 0.0 6.0 0.00 0.08 0.08 85 1010.4
20260508121610 73 75 3.0 8.0 0.00 0.00 0.00 61 987.7
20260508111104 72 68 3.0 8.0 0.00 0.00 0.00 66 987.6
20260508105927 70 213 6.0 14.0 0.00 0.00 0.00 65 1008.6
20260508095926 74 230 3.0 9.0 0.00 0.00 0.00 62 1008.9
20260508091252 70 153 1.0 4.0 0.00 0.00 0.00 73 987.6
20260508081242 68 127 2.0 7.0 0.00 0.00 0.00 77 987.4
20260508075929 66 319 1.0 4.0 0.00 0.00 0.00 71 1008.5
20260508071058 68 124 2.0 5.0 0.00 0.00 0.00 75 987.3
20260508051620 60 289 0.0 1.0 0.00 0.00 0.00 88 986.7
20260508031550 60 234 0.0 0.0 0.00 0.00 0.00 86 985.7
20260508025930 57 329 0.0 2.0 0.00 0.00 0.00 82 1006.1
20260508021117 61 5 0.0 0.0 0.00 0.00 0.00 87 985.4
20260508015929 57 327 0.0 0.0 0.00 0.01 0.00 82 1006.4
20260508011059 61 317 0.0 0.0 0.00 0.00 0.00 90 985.8
20260508005916 58 327 0.0 0.0 0.00 0.02 0.00 81 1006.6
20260507235909 58 59 1.0 3.0 0.00 0.12 0.00 81 1007.2
20260507220042 63 322 1.0 8.0 0.00 0.00 0.00 88 987.1
20260507215936 58 355 0.0 0.0 0.00 0.14 0.00 82 1007.9